FALCON 9 DEB (56365 NORAD) Tracking and Keplerian Element Data

This shows tracking and keplerian element data for the satellite.

Feedback or suggestion? Click here.




ElementValue
Catalog56365
NameFALCON 9 DEB
Epoch Orbit195
Epoch Day126.89113745
Epoch Year2023
RAAN126.492
Inclination97.6658
Eccentricity0.0040811
Argument of Perigee206.9296
Mean Anonmoly152.9858
Mean Motion15.87093469
Decay Rate0.00280123
L11 56365U 23058BA 23126.89113745 .00280123 29948-4 10172-2 0 9990
L22 56365 97.6658 126.4920 0040811 206.9296 152.9858 15.87093469 1955



Live tracking and technical data element details for FALCON 9 DEB (NORAD 56365). FALCON 9 DEB can be tracked NOW for your location showing map with azimuth and elevation plus other details from your city location.







IsCatalogInMostPopularTable: catalog: 56365, numindb: 6
Update: records affected: 1



GetName: 56365 FALCON 9 DEB

Hit Count: updated at: Wed, 07 Jun 2023 09:01:31 GMT